| time (UTC) | temp F | wind direction | speed MPH | gust MPH | rain 1hr in | rain 24hr in | rain mn in | humidity % | barometer mb |
| 20260508141547 | 46 | 210 | 0.0 | 0.0 | 0.00 | 0.00 | 0.00 | 88 | 1013.7 |
| 20260508140033 | 44 | 286 | 0.0 | 1.0 | 0.00 | 0.00 | 0.00 | 90 | 1013.6 |
| 20260508134534 | 42 | 157 | 0.0 | 0.0 | 0.00 | 0.00 | 0.00 | 92 | 1013.6 |
| 20260508133030 | 41 | 211 | 0.0 | 1.0 | 0.00 | 0.00 | 0.00 | 92 | 1013.5 |
| 20260508131529 | 40 | 272 | 0.0 | 1.0 | 0.00 | 0.00 | 0.00 | 94 | 1013.5 |
| 20260508130028 | 39 | 203 | 0.0 | 1.0 | 0.00 | 0.00 | 0.00 | 93 | 1013.3 |
| 20260508124526 | 39 | 238 | 0.0 | 0.0 | 0.00 | 0.00 | 0.00 | 93 | 1013.1 |
| 20260508123025 | 39 | 238 | 0.0 | 1.0 | 0.00 | 0.00 | 0.00 | 92 | 1013.1 |
| 20260508121548 | 39 | 75 | 0.0 | 1.0 | 0.00 | 0.00 | 0.00 | 94 | 1012.9 |
| 20260508120022 | 39 | 139 | 0.0 | 1.0 | 0.00 | 0.00 | 0.00 | 92 | 1012.9 |
| 20260508114519 | 40 | 108 | 0.0 | 0.0 | 0.00 | 0.00 | 0.00 | 94 | 1013.0 |
| 20260508113018 | 40 | 121 | 0.0 | 1.0 | 0.00 | 0.00 | 0.00 | 94 | 1013.1 |
| 20260508111516 | 42 | 103 | 0.0 | 1.0 | 0.00 | 0.00 | 0.00 | 89 | 1012.8 |
| 20260508110015 | 40 | 95 | 0.0 | 1.0 | 0.00 | 0.00 | 0.00 | 91 | 1012.7 |
| 20260508104613 | 41 | 206 | 0.0 | 2.0 | 0.00 | 0.00 | 0.00 | 93 | 1012.6 |
| 20260508103015 | 40 | 113 | 0.0 | 1.0 | 0.00 | 0.00 | 0.00 | 91 | 1012.6 |
| 20260508101510 | 42 | 158 | 0.0 | 0.0 | 0.00 | 0.00 | 0.00 | 90 | 1012.6 |
| 20260508100007 | 41 | 158 | 0.0 | 0.0 | 0.00 | 0.00 | 0.00 | 92 | 1012.4 |
| 20260508094505 | 41 | 252 | 0.0 | 1.0 | 0.00 | 0.00 | 0.00 | 92 | 1012.3 |
| 20260508093001 | 42 | 190 | 0.0 | 1.0 | 0.00 | 0.00 | 0.00 | 86 | 1012.3 |
| 20260508091500 | 42 | 193 | 0.0 | 0.0 | 0.00 | 0.00 | 0.00 | 90 | 1012.2 |
| 20260508090059 | 43 | 194 | 0.0 | 0.0 | 0.00 | 0.00 | 0.00 | 89 | 1012.2 |
| 20260508084557 | 43 | 245 | 0.0 | 1.0 | 0.00 | 0.00 | 0.00 | 88 | 1012.0 |
| 20260508083137 | 43 | 162 | 0.0 | 2.0 | 0.00 | 0.00 | 0.00 | 87 | 1012.0 |
| 20260508081556 | 43 | 151 | 0.0 | 1.0 | 0.00 | 0.00 | 0.00 | 87 | 1011.8 |
| 20260508080059 | 45 | 204 | 0.0 | 2.0 | 0.00 | 0.00 | 0.00 | 84 | 1011.8 |
| 20260508074547 | 47 | 299 | 1.0 | 3.0 | 0.00 | 0.00 | 0.00 | 83 | 1011.9 |
| 20260508073050 | 46 | 161 | 0.0 | 1.0 | 0.00 | 0.00 | 0.00 | 81 | 1011.9 |
| 20260508071544 | 49 | 129 | 1.0 | 4.0 | 0.00 | 0.00 | 0.00 | 81 | 1011.8 |
| 20260508070044 | 47 | 97 | 0.0 | 0.0 | 0.00 | 0.00 | 0.00 | 84 | 1011.7 |
| 20260508064601 | 47 | 126 | 0.0 | 1.0 | 0.00 | 0.01 | 0.00 | 82 | 1011.5 |
| 20260508063038 | 48 | 139 | 0.0 | 1.0 | 0.00 | 0.01 | 0.00 | 80 | 1011.5 |
| 20260508061532 | 50 | 158 | 0.0 | 2.0 | 0.00 | 0.01 | 0.00 | 77 | 1011.4 |
| 20260508060028 | 51 | 155 | 0.0 | 3.0 | 0.00 | 0.01 | 0.00 | 75 | 1011.3 |
| 20260508054527 | 52 | 103 | 0.0 | 2.0 | 0.00 | 0.03 | 0.01 | 73 | 1011.2 |
| 20260508053027 | 53 | 70 | 1.0 | 3.0 | 0.00 | 0.03 | 0.01 | 71 | 1011.3 |
| 20260508051527 | 55 | 151 | 2.0 | 6.0 | 0.00 | 0.03 | 0.01 | 65 | 1011.2 |
| 20260508050025 | 56 | 86 | 1.0 | 9.0 | 0.00 | 0.03 | 0.01 | 63 | 1011.1 |
| 20260508044524 | 56 | 111 | 4.0 | 8.0 | 0.00 | 0.03 | 0.01 | 63 | 1011.0 |
| 20260508043024 | 56 | 96 | 5.0 | 9.0 | 0.00 | 0.03 | 0.01 | 63 | 1010.7 |
| 20260508041522 | 57 | 105 | 5.0 | 10.0 | 0.00 | 0.03 | 0.01 | 61 | 1010.7 |
| 20260508040022 | 57 | 106 | 4.0 | 8.0 | 0.00 | 0.03 | 0.01 | 62 | 1010.6 |
| 20260508034521 | 59 | 97 | 4.0 | 10.0 | 0.00 | 0.03 | 0.01 | 60 | 1010.5 |
| 20260508033021 | 59 | 98 | 5.0 | 8.0 | 0.00 | 0.03 | 0.01 | 59 | 1010.3 |
| 20260508031520 | 61 | 117 | 2.0 | 6.0 | 0.00 | 0.03 | 0.01 | 58 | 1010.1 |
| 20260508030020 | 61 | 101 | 2.0 | 6.0 | 0.00 | 0.03 | 0.01 | 58 | 1009.9 |
| 20260508024525 | 63 | 193 | 0.0 | 0.0 | 0.00 | 0.03 | 0.01 | 55 | 1009.7 |
| 20260508023030 | 66 | 188 | 0.0 | 0.0 | 0.00 | 0.03 | 0.01 | 48 | 1009.6 |
| 20260508021518 | 70 | 201 | 0.0 | 3.0 | 0.00 | 0.03 | 0.01 | 40 | 1009.7 |
| 20260508020018 | 72 | 199 | 0.0 | 1.0 | 0.00 | 0.03 | 0.01 | 37 | 1009.7 |
| 20260508014519 | 72 | 300 | 0.0 | 3.0 | 0.00 | 0.03 | 0.01 | 37 | 1009.7 |
| 20260508013015 | 72 | 259 | 0.0 | 6.0 | 0.00 | 0.03 | 0.01 | 37 | 1009.6 |
| 20260508011515 | 74 | 214 | 1.0 | 10.0 | 0.00 | 0.03 | 0.01 | 34 | 1009.7 |
| 20260508010014 | 75 | 287 | 1.0 | 5.0 | 0.00 | 0.03 | 0.01 | 33 | 1009.6 |
| 20260508004513 | 75 | 223 | 0.0 | 6.0 | 0.00 | 0.03 | 0.01 | 31 | 1009.6 |
| 20260508003012 | 74 | 305 | 1.0 | 7.0 | 0.00 | 0.03 | 0.01 | 30 | 1009.7 |
| 20260508001511 | 75 | 243 | 3.0 | 9.0 | 0.00 | 0.03 | 0.01 | 28 | 1009.6 |
| 20260508000011 | 76 | 285 | 2.0 | 5.0 | 0.00 | 0.03 | 0.01 | 29 | 1009.6 |
| 20260507234513 | 76 | 205 | 3.0 | 9.0 | 0.00 | 0.03 | 0.01 | 27 | 1009.4 |
| 20260507233009 | 76 | 278 | 2.0 | 7.0 | 0.00 | 0.03 | 0.01 | 27 | 1009.4 |
| 20260507231508 | 76 | 307 | 3.0 | 7.0 | 0.00 | 0.03 | 0.01 | 27 | 1009.5 |
| 20260507230007 | 76 | 270 | 4.0 | 9.0 | 0.00 | 0.03 | 0.01 | 28 | 1009.6 |
| 20260507224513 | 76 | 300 | 5.0 | 11.0 | 0.00 | 0.03 | 0.01 | 30 | 1009.7 |
| 20260507223005 | 76 | 194 | 1.0 | 7.0 | 0.00 | 0.03 | 0.01 | 29 | 1009.8 |
| 20260507221501 | 75 | 257 | 1.0 | 5.0 | 0.00 | 0.03 | 0.01 | 35 | 1009.9 |
| 20260507220001 | 75 | 293 | 0.0 | 3.0 | 0.00 | 0.03 | 0.01 | 35 | 1010.0 |
| 20260507214610 | 74 | 63 | 3.0 | 5.0 | 0.00 | 0.03 | 0.01 | 34 | 1010.2 |
| 20260507213107 | 72 | 309 | 0.0 | 4.0 | 0.00 | 0.03 | 0.01 | 39 | 1010.4 |
| 20260507211555 | 73 | 358 | 0.0 | 3.0 | 0.00 | 0.03 | 0.01 | 40 | 1010.4 |
| 20260507210055 | 72 | 210 | 2.0 | 8.0 | 0.00 | 0.03 | 0.01 | 40 | 1010.5 |
| 20260507204601 | 73 | 109 | 1.0 | 3.0 | 0.00 | 0.03 | 0.01 | 44 | 1010.6 |
| 20260507203052 | 73 | 211 | 1.0 | 5.0 | 0.00 | 0.03 | 0.01 | 39 | 1010.8 |
| 20260507201549 | 72 | 69 | 0.0 | 3.0 | 0.00 | 0.03 | 0.01 | 42 | 1010.7 |
| 20260507200049 | 72 | 37 | 4.0 | 9.0 | 0.00 | 0.03 | 0.01 | 41 | 1010.8 |
| 20260507194547 | 71 | 238 | 1.0 | 5.0 | 0.00 | 0.03 | 0.01 | 40 | 1010.9 |
| 20260507193045 | 71 | 51 | 0.0 | 4.0 | 0.00 | 0.03 | 0.01 | 40 | 1010.9 |
| 20260507191541 | 70 | 182 | 1.0 | 4.0 | 0.00 | 0.03 | 0.01 | 46 | 1011.1 |
| 20260507190042 | 69 | 44 | 1.0 | 5.0 | 0.00 | 0.03 | 0.01 | 47 | 1011.2 |
| 20260507184539 | 69 | 269 | 1.0 | 3.0 | 0.00 | 0.03 | 0.01 | 48 | 1011.6 |
| 20260507183040 | 67 | 297 | 2.0 | 4.0 | 0.00 | 0.03 | 0.01 | 53 | 1011.7 |
| 20260507181532 | 66 | 234 | 0.0 | 4.0 | 0.00 | 0.03 | 0.01 | 58 | 1011.8 |
| 20260507180032 | 64 | 274 | 1.0 | 4.0 | 0.00 | 0.03 | 0.01 | 61 | 1011.9 |
| 20260507174530 | 63 | 283 | 1.0 | 5.0 | 0.00 | 0.03 | 0.01 | 63 | 1011.9 |
| 20260507173025 | 62 | 41 | 0.0 | 3.0 | 0.00 | 0.03 | 0.01 | 68 | 1012.0 |
| 20260507171517 | 60 | 96 | 0.0 | 1.0 | 0.00 | 0.03 | 0.01 | 72 | 1012.1 |
| 20260507170015 | 59 | 205 | 0.0 | 4.0 | 0.00 | 0.03 | 0.01 | 79 | 1012.4 |
| 20260507164517 | 57 | 252 | 0.0 | 2.0 | 0.00 | 0.03 | 0.01 | 80 | 1012.6 |
| 20260507163010 | 55 | 51 | 1.0 | 4.0 | 0.00 | 0.03 | 0.01 | 82 | 1012.7 |
| 20260507161510 | 54 | 56 | 0.0 | 2.0 | 0.00 | 0.03 | 0.01 | 87 | 1013.0 |
| 20260507160008 | 53 | 304 | 0.0 | 2.0 | 0.00 | 0.03 | 0.01 | 86 | 1013.1 |
| 20260507154507 | 52 | 55 | 0.0 | 2.0 | 0.00 | 0.03 | 0.01 | 88 | 1013.3 |
| 20260507153006 | 52 | 101 | 0.0 | 1.0 | 0.00 | 0.03 | 0.01 | 88 | 1013.4 |
| 20260507151505 | 51 | 144 | 0.0 | 1.0 | 0.00 | 0.03 | 0.01 | 89 | 1013.2 |
| 20260507150006 | 50 | 188 | 0.0 | 2.0 | 0.00 | 0.03 | 0.01 | 92 | 1013.2 |
| 20260507144501 | 50 | 124 | 0.0 | 4.0 | 0.00 | 0.03 | 0.01 | 92 | 1013.1 |
| 20260507143102 | 50 | 214 | 0.0 | 3.0 | 0.00 | 0.03 | 0.01 | 92 | 1012.9 |